Location: *
(39.6167°S, 171.5333°W)
Time: 06:14:26
(UTC+00:00)

SL-24 R/B - Pass Details

Date: 13 May 2021
Orbit: 506 x 1001 km, 97.5° (Epoch: 16 June)

Event Time Altitude Azimuth Distance (km) Brightness Sun altitude
Rises 16:43:26 0° 174° (S) 3,057 7.6 -19.1°
Reaches altitude 10° 16:45:51 10° 178° (S) 2,058 6.7 -18.6°
Maximum altitude 16:50:08 51° 253° (WSW) 751 4.0 -17.8°
Drops below altitude 10° 16:53:55 10° 329° (NNW) 1,818 6.3 -17.1°
Sets 16:55:57 0° 334° (NNW) 2,663 7.2 -16.7°
